Regional Weather Roundup
Issued by NWS

Home | Current Version | Previous Version | Text Only | Print | Product List | Glossary On
Versions: 1 2 3 4 5 6 7 8 9 10 11 12 13 14 15 16 17 18 19 20 21 22 23 24 25 26 27 28 29 30 31 32 33 34 35 36 37 38 39 40 41 42 43 44 45 46 47 48 49 50
000
ASUS45 KBOU 280210
RWRCO

WEATHER ROUNDUP FOR COLORADO
NATIONAL WEATHER SERVICE DENVER/BOULDER CO
800 PM MDT MON JUL 27 2015

NOTE: "FAIR" INDICATES FEW OR NO CLOUDS BELOW 12000 FEET WITH NO
SIGNIFICANT WEATHER AND/OR OBSTRUCTIONS TO VISIBILITY.

COZ001>005-013-030-031-280300-
...NORTHWEST COLORADO...

CITY           SKY/WX    TMP DP  RH WIND       PRES   REMARKS
CRAIG          CLEAR     80  29  15 W14       29.99R
HAYDEN         CLEAR     79  27  14 SW15      30.01R
MEEKER         CLEAR     79  30  16 S12       30.01R
MOUNT WERNER   NOT AVBL
STEAMBOAT SPGS CLEAR     76  28  17 S8        30.04S
WALDEN         PTCLDY    70  23  17 SW18G25   30.14R
$$

COZ006>008-011-280300-
...WEST CENTRAL VALLEYS...

CITY           SKY/WX    TMP DP  RH WIND       PRES   REMARKS
GRAND JUNCTION CLEAR     86  28  12 W9        29.90R
MONTROSE       CLEAR     83  31  15 SW6       30.02R
EAGLE          PTCLDY    82  30  15 SW12G18   30.05R
RIFLE          CLEAR     86  22   9 W13       29.94R
DELTA          CLEAR     89  27  10 SW10      29.94R
NUCLA          CLEAR     84  23  10 SW14      30.06R
$$

COZ017>023-064>068-280300-
...SOUTHWEST COLORADO...

CITY           SKY/WX    TMP DP  RH WIND       PRES   REMARKS
DURANGO        PTCLDY    82  34  17 W8        30.10R
CORTEZ         CLEAR     82  31  15 W7        30.04R
PAGOSA SPRINGS CLEAR     76  32  20 W5        30.21R
TELLURIDE      CLEAR     71  28  20 W12G17    30.34R
WOLF CREEK PAS NOT AVBL
$$

COZ009-010-012-014-032>034-037-058>063-280300-
...CENTRAL COLORADO...

CITY           SKY/WX    TMP DP  RH WIND       PRES   REMARKS
ASPEN          CLEAR     66  41  40 S7        30.16R
BUENA VISTA    CLEAR     74  29  19 W12       30.16R
COPPER MTN     PTCLDY    59  27  29 W20G30    30.51R
BERTHOUD PASS  FAIR      50  41  71 W24G35    30.54R
COTTONWOOD PAS CLEAR     70  23  17 W14G28    30.32R
GUNNISON       CLEAR     75  32  20 W12       30.20R
KREMMLING      PTCLDY    73  23  15 W12G17    30.11R
LEADVILLE      CLEAR     64  28  25 W10       30.32R
MONARCH PASS   PTCLDY    55  30  38 W35G45    30.60R
SALIDA         CLEAR     78  32  19 SW7       30.19R
SUNLIGHT       CLEAR     59  36  41 CALM      30.42R
WILKERSON PASS PTCLDY    61  28  29 W9G21     30.45R
$$

COZ069>075-280300-
...SAN LUIS VALLEY/SANGRE DE CRISTO MOUNTAINS...

CITY           SKY/WX    TMP DP  RH WIND       PRES   REMARKS
ALAMOSA        CLEAR     73  41  31 W9        30.16R
LA VETA PASS   PTCLDY    59  41  51 MISG      30.36R
SAGUACHE       PTCLDY    68  50  52 CALM      30.18R
$$

COZ035-036-038>040-280300-
...NORTHERN COLORADO FRONT RANGE...

CITY           SKY/WX    TMP DP  RH WIND       PRES   REMARKS
DENVER INTL AP PTCLDY    89  45  21 S7        29.85R
DMNS CITY PARK   N/A     87  46  23 SE6       29.85R
AURORA         MOCLDY    85  49  28 SW10      29.88R
FRONT RANGE AP MOCLDY    84  45  24 S13       29.87R
ERIE MUNI ARPT PTCLDY    87  36  16 NW8G18    29.84R
BOULDER MUN AP PTCLDY    90  34  13 W17G24    29.85R
CENTENNIAL     PTCLDY    85  47  26 S12       29.90R
BROOMFIELD     PTCLDY    88  37  16 NW12      29.88R
FORT COLLINS   PTCLDY    88  43  20 W15       29.80R
LONGMONT       PTCLDY    87  36  16 W12       29.85R
$$

COZ041-046-047-076>085-087-088-280300-
...PIKES PEAK/PALMER DIVIDE AND SOUTHERN FOOTHILLS...

CITY           SKY/WX    TMP DP  RH WIND       PRES   REMARKS
COLO. SPRINGS  PTCLDY    79  49  34 S7        29.98R
A. F. ACADEMY  PTCLDY    82  44  26 S12       29.99R
ELLICOTT       PTCLDY   N/A N/A N/A S9        29.97R
FALCON         PTCLDY    75  47  37 S6        30.05R
FORT CARSON    PTCLDY    81  50  33 SW6       29.94R
LIMON          MOCLDY    79  53  40 S8        29.89R
MONUMENT HILL  PTCLDY    72  46  40 SW7       30.03S
TRINIDAD       MOCLDY    84  46  26 SW9       29.98S
$$

COZ042>045-048>051-090-091-280300-
...NORTHEAST COLORADO...

CITY           SKY/WX    TMP DP  RH WIND       PRES   REMARKS
GREELEY ARPT   PTCLDY    88  59  37 S6        29.80R
AKRON            N/A    N/A N/A N/A MISG      29.79R
BURLINGTON     PTCLDY    81  64  56 S10       29.80R
WRAY           CLEAR     88  65  47 SE15      29.74S
STERLING       NOT AVBL
HOLYOKE        CLEAR     86  66  51 SE12      29.74R
FORT MORGAN    PTCLDY    85  53  32 SE7       29.78R
$$

COZ086-089-092>099-280300-
...SOUTHEAST COLORADO...

CITY           SKY/WX    TMP DP  RH WIND       PRES   REMARKS
PUEBLO         PTCLDY    90  49  24 SW13      29.84S
LA JUNTA       MOCLDY    85  59  41 SW8       29.82S
LAMAR          MOCLDY    91  54  28 S17       29.77R
SPRINGFIELD      N/A     84  60  44 S23G32    29.89S
$$



USA.gov is the U.S. government's official web portal to all federal, state and local government web resources and services.